Location: Philomena
(55.1756°N, 111.6233°W)
Time: 10:04:50
(UTC+00:00)

PCSat - Pass Details

Date: 08 December 2023
Orbit: 784 x 791 km, 67.0° (Epoch: 02 March)

Event Time Altitude Azimuth Distance (km) Brightness Sun altitude
Exits shadow 10:57:25 25° 66° (ENE) 1,570 11.6 -38.4°
Drops below altitude 10° 10:59:49 10° 50° (NE) 2,361 12.6 -38.0°
Sets 11:02:21 0° 44° (NE) 3,295 13.5 -37.7°
